THOR BURNER 2 R/B

Satellite information

Favourite Embed

Satellite Type and Status

ROCKET BODYIN ORBIT

Key statistics

Satellite THOR BURNER 2 R/B at a glance.

Uptime

18245

Days in orbit

Revolutions

≈ 14.2

Per day

Orbit

SSO

Sun Synchronous Orbit

Inclination

98.7

Latest

Satellite identification and parameters

Extended collection of information and parameters for THOR BURNER 2 R/B.

Object identification

Identified? True

Debris? False

Object name: THOR BURNER 2 R/B

International designator: 1975-043B

Object number (NORAD): 7817

Object ID (CCSDS): 7817

Country: UNITED STATES OF AMERICA (US)

Current information (Y/N): Y

RCS size: LARGE

Orbital parameters

Period: 101.43 minutes

Inclination: 98.7131 deg

SMA: 7204.508 km

Apoapsis: 864.385 km

Periapsis: 788.361 km

RAAN: 333.6674 deg

Eccentricy: 0.0052761

Argument of periapsis: 203.6808 deg

Mean anomaly: 156.1939 deg

Mean motion: 14.19698991 rev/day

Mean motion (dot): 0.00000149 rev/day2

B* drag term: 0.000089899 1/REarth

Two-line elements (TLE)

Creation date: May 6, 2025, 3:54 a.m.

Reference frame: TEME

Reference center: EARTH

Epoch: May 5, 2025, 7:56 p.m. UTC

TLE line 0: 0 THOR BURNER 2 R/B

TLE line 1: 1 07817U 75043B 25125.83088726 .00000149 00000-0 89899-4 0 9990

TLE line 2: 2 07817 98.7131 333.6674 0052761 203.6808 156.1939 14.19698991305597

Live tracking on map

Real-time ground track for satellite THOR BURNER 2 R/B.

In-orbit conjunctions

A list of the most updated potential collisions computed for object THOR BURNER 2 R/B.

Target Orbit TCA Probability of collision Miss distance Type
CZ-4 DEB SSO 2025-01-11 06:01:53 0.0001201709 606.0 (m) DEBRIS
CZ-6A DEB LEO 2024-11-26 00:13:25 0.0002597507 453.0 (m) DEBRIS
SL-3 R/B LEO 2024-11-15 15:45:48 0.0003134181 441.0 (m) ROCKET BODY
FENGYUN 1C DEB SSO 2024-11-13 21:18:15 0.0001829614 574.0 (m) DEBRIS
FENGYUN 1C DEB SSO 2024-11-13 16:59:06 0.0002627752 606.0 (m) DEBRIS

Associated space launch

Military meteorological satellite

THOR BURNER 2 R/B was lifted into orbit during the mission ‘Thor Burner 2A | DMSP-5C F2’, on board a Thor Burner 2A space rocket.

The launch took place on May 24, 1975, 3:22 a.m. from Space Launch Complex 10W.

For more information about the launch, click the button.

Launch to space Thor Burner 2A | DMSP-5C F2
Thor Burner 2A | DMSP-5C F2

Agency: N/A

Status: Launch Successful

Launch date: May 24, 1975, 3:22 a.m. UTC

Rocket: Thor Burner 2A

Launch pad: Space Launch Complex 10W

Location: Vandenberg SFB, CA, USA

...

Latest news about this satellite

There are no fresh news available about this satellite. Check back as we update our databases every day.


Newsletter sign-up

Weekly statistics, charts and insights to help you stay on top of the space industry.